SL-14 R/B

Satellite information

Favourite Embed

Satellite Type and Status

ROCKET BODYIN ORBIT

Key statistics

Satellite SL-14 R/B at a glance.

Uptime

11712

Days in orbit

Revolutions

≈ 14.8

Per day

Orbit

LEO

Low Earth Orbit

Inclination

82.5

Latest

Satellite identification and parameters

Extended collection of information and parameters for SL-14 R/B.

Object identification

Identified? True

Debris? False

Object name: SL-14 R/B

International designator: 1993-024B

Object number (NORAD): 22627

Object ID (CCSDS): 22627

Country: COMMONWEALTH OF INDEPENDENT STATES (CIS)

Current information (Y/N): Y

RCS size: LARGE

Orbital parameters

Period: 97.311 minutes

Inclination: 82.5192 deg

SMA: 7008.105 km

Apoapsis: 644.872 km

Periapsis: 615.067 km

RAAN: 300.7672 deg

Eccentricy: 0.0021264

Argument of periapsis: 256.5198 deg

Mean anomaly: 103.3646 deg

Mean motion: 14.797962 rev/day

Mean motion (dot): 0.00000481 rev/day2

B* drag term: 0.000060629 1/REarth

Two-line elements (TLE)

Creation date: May 10, 2025, 2:32 a.m.

Reference frame: TEME

Reference center: EARTH

Epoch: May 9, 2025, 8:44 p.m. UTC

TLE line 0: 0 SL-14 R/B

TLE line 1: 1 22627U 93024B 25129.86457894 .00000481 00000-0 60629-4 0 9997

TLE line 2: 2 22627 82.5192 300.7672 0021264 256.5198 103.3646 14.79796200728223

Live tracking on map

Real-time ground track for satellite SL-14 R/B.

In-orbit conjunctions

A list of the most updated potential collisions computed for object SL-14 R/B.

Target Orbit TCA Probability of collision Miss distance Type
BREEZE-KM R/B SSO 2024-12-22 02:01:37 0.0002095052 857.0 (m) ROCKET BODY
YAOGAN 30 DEB SSO 2024-08-01 03:54:54 0.0001075312 65.0 (m) DEBRIS

Associated space launch

Tselina-R series ELINT satellite

SL-14 R/B was lifted into orbit during the mission ‘Tsiklon-3 | Tselina-R 4’, on board a Tsiklon-3 space rocket.

The launch took place on April 16, 1993, 7:49 a.m. from 32/1.

For more information about the launch, click the button.

Launch to space Tsiklon-3 | Tselina-R 4
Tsiklon-3 | Tselina-R 4

Agency: N/A

Status: Launch Successful

Launch date: April 16, 1993, 7:49 a.m. UTC

Rocket: Tsiklon-3

Launch pad: 32/1

Location: Plesetsk Cosmodrome, Russian Federation

...

Latest news about this satellite

There are no fresh news available about this satellite. Check back as we update our databases every day.


Newsletter sign-up

Weekly statistics, charts and insights to help you stay on top of the space industry.